Regional Weather Roundup
Issued by NWS

Home | Current Version | Previous Version | Text Only | Print | Product List | Glossary Off
Versions: 1 2 3 4 5 6 7 8 9 10 11 12 13 14 15 16 17 18 19 20 21 22 23 24 25 26 27 28 29 30 31 32 33 34 35 36 37 38 39 40 41 42 43 44 45 46 47 48 49 50

611
ASUS43 KLMK 022110
RWRKY
KENTUCKY REGIONAL WEATHER ROUNDUP
NATIONAL WEATHER SERVICE LOUISVILLE KY
400 PM EST FRI DEC 02 2016

NOTE "FAIR" INDICATES FEW OR NO CLOUDS BELOW 12,000 FEET
WITH NO SIGNIFICANT WEATHER AND/OR OBSTRUCTIONS TO VISIBILITY.

KYZ001>023-026-027-061>063-070>075-022200-
WESTERN AND SOUTH CENTRAL KENTUCKY

CITY           SKY/WX    TMP DP  RH WIND       PRES   REMARKS
PADUCAH        SUNNY     53  28  38 N3        30.26R
HENDERSON      SUNNY     46  30  53 NW8       30.27R
OWENSBORO      SUNNY     47  31  53 NW10      30.27R
HOPKINSVILLE   SUNNY     51  30  44 N3        30.25R
BOWLING GREEN  SUNNY     54  28  36 VRB6      30.24S
GLASGOW        SUNNY     51  29  43 W7        30.23S
$$

KYZ024-025-028>034-038-045-046-053-022200-
NORTH CENTRAL KENTUCKY

CITY           SKY/WX    TMP DP  RH WIND       PRES   REMARKS
LOUISVILLE/SDF PTSUNNY   47  28  47 W8        30.25S
LOUISVILLE/LOU PTSUNNY   45  29  53 NW6       30.26R
FORT KNOX      SUNNY     46  30  54 W2        30.22S
$$

KYZ035>037-039>044-047>052-055>060-089>105-022200-
NORTHEAST KENTUCKY

CITY           SKY/WX    TMP DP  RH WIND       PRES   REMARKS
LEXINGTON      PTSUNNY   43  29  57 N9        30.24R
COVINGTON      CLOUDY    40  30  67 SW8       30.23R WCI  34
FRANKFORT      CLOUDY    43  29  57 NW7       30.24S
$$

KYZ054-064>069-076>088-106>120-022200-
SOUTHEAST KENTUCKY

CITY           SKY/WX    TMP DP  RH WIND       PRES   REMARKS
JACKSON        SUNNY     45  29  53 VRB7      30.21R
LONDON         SUNNY     50  26  39 W9        30.20S
SOMERSET       SUNNY     50  27  40 W9        30.24R
MIDDLESBORO    SUNNY     53  25  33 W8        30.21R
MONTICELLO     CLEAR     52  28  39 NW7       30.23S
$$





USA.gov is the U.S. government's official web portal to all federal, state and local government web resources and services.